Tracking 20232 objects as of 18-Jan-2020
HD Live streaming from Space Station
objects crossing your sky now

DELTA 1 DEB (YO)

Track DELTA 1 DEB (YO) now!
10-day predictions


NORAD ID: 167
Int'l Code: 1961-017D
Perigee: 757.0 km
Apogee: 889.5 km
Inclination: 47.8 °
Period: 101.2 minutes
Semi major axis: 7194 km
RCS: 0.047 m2 (small)
Launch date: July 12, 1961
Source: United States (US)
Launch site: AIR FORCE EASTERN TEST RANGE (AFETR)

Note: This is SATELLITE DEBRIS
aabbcc
Your satellite tracking list
Your tracking list is empty




NASA's NSSDC Master Catalog

Two Line Element Set (TLE):
1   167U 61017D   20018.02568704 -.00000284  00000-0 -56083-4 0  9994
2   167  47.8452 256.3362 0092087 247.2469 111.8662 14.22740835 31569
Source of the keplerian elements: AFSPC